When you browse on this site, cookies collect data to enhance your experience and personalize the content and advertising you see.
Visit our Privacy Policy to learn more. By continuing to use the site, you agree to this use of cookies and data.
  • In Österreich
  • Länderverzeichnis
  • Für 7 Tage
  • Wassertemperatur
  • Wetterkarte
  • News
  • Widgets
  • user-avatar
    Anmelden

    Stündliche Wetter Lubango

    Heute, 1 Juni, Montag

    Zeit Temperatur Niederschläge Wind Luftdruck Luftfeuchtigkeit
    00:00 +14°C° 0 mm 2 m/S 609 mmHg 42%
    01:00 +14°C° 0 mm 2 m/S 609 mmHg 44%
    02:00 +14°C° 0 mm 2 m/S 609 mmHg 45%
    03:00 +13°C° 0 mm 2 m/S 609 mmHg 47%
    04:00 +13°C° 0 mm 2 m/S 608 mmHg 48%
    05:00 +12°C° 0 mm 3 m/S 609 mmHg 49%
    06:00 +12°C° 0 mm 3 m/S 609 mmHg 49%
    07:00 +13°C° 0 mm 3 m/S 610 mmHg 52%
    08:00 +16°C° 0 mm 3 m/S 610 mmHg 46%
    09:00 +19°C° 0 mm 4 m/S 611 mmHg 40%
    10:00 +22°C° 0 mm 4 m/S 612 mmHg 34%
    11:00 +24°C° 0 mm 3 m/S 612 mmHg 31%
    12:00 +25°C° 0 mm 3 m/S 612 mmHg 27%
    13:00 +26°C° 0 mm 2 m/S 612 mmHg 24%
    14:00 +26°C° 0 mm 2 m/S 612 mmHg 24%
    15:00 +26°C° 0 mm 1 m/S 611 mmHg 24%
    16:00 +26°C° 0 mm 1 m/S 611 mmHg 23%
    17:00 +23°C° 0 mm 1 m/S 610 mmHg 29%
    18:00 +20°C° 0 mm 1 m/S 610 mmHg 34%
    19:00 +16°C° 0 mm 1 m/S 609 mmHg 40%
    20:00 +16°C° 0 mm 1 m/S 609 mmHg 40%
    21:00 +15°C° 0 mm 1 m/S 609 mmHg 39%
    22:00 +15°C° 0 mm 1 m/S 609 mmHg 39%
    23:00 +15°C° 0 mm 1 m/S 609 mmHg 40%

    Morgen, 2 Juni, Dienstag

    Zeit Temperatur Niederschläge Wind Luftdruck Luftfeuchtigkeit
    00:00 +15°C° 0 mm 1 m/S 609 mmHg 41%
    01:00 +14°C° 0 mm 1 m/S 610 mmHg 42%
    02:00 +14°C° 0 mm 1 m/S 609 mmHg 44%
    03:00 +14°C° 0 mm 1 m/S 609 mmHg 45%
    04:00 +14°C° 0 mm 1 m/S 609 mmHg 46%
    05:00 +14°C° 0 mm 2 m/S 609 mmHg 49%
    06:00 +14°C° 0 mm 2 m/S 609 mmHg 51%
    07:00 +14°C° 0 mm 2 m/S 609 mmHg 53%
    08:00 +16°C° 0 mm 3 m/S 610 mmHg 48%
    09:00 +19°C° 0 mm 4 m/S 611 mmHg 42%
    10:00 +22°C° 0 mm 4 m/S 612 mmHg 36%
    11:00 +23°C° 0 mm 4 m/S 612 mmHg 33%
    12:00 +25°C° 0 mm 3 m/S 612 mmHg 30%
    13:00 +26°C° 0 mm 3 m/S 612 mmHg 27%
    14:00 +26°C° 0 mm 2 m/S 611 mmHg 28%
    15:00 +25°C° 0 mm 2 m/S 611 mmHg 29%
    16:00 +25°C° 0 mm 1 m/S 610 mmHg 30%
    17:00 +23°C° 0 mm 1 m/S 609 mmHg 34%
    18:00 +20°C° 0 mm 1 m/S 609 mmHg 38%
    19:00 +18°C° 0 mm 1 m/S 608 mmHg 42%
    20:00 +18°C° 0 mm 1 m/S 609 mmHg 42%
    21:00 +18°C° 0 mm 1 m/S 609 mmHg 41%
    22:00 +18°C° 0 mm 1 m/S 610 mmHg 41%
    23:00 +18°C° 0 mm 1 m/S 610 mmHg 41%

    übermorgen, 3 Juni, Mittwoch

    Zeit Temperatur Niederschläge Wind Luftdruck Luftfeuchtigkeit
    00:00 +18°C° 0 mm 1 m/S 610 mmHg 41%
    01:00 +18°C° 0 mm 1 m/S 609 mmHg 42%
    02:00 +18°C° 0 mm 1 m/S 609 mmHg 43%
    03:00 +16°C° 0 mm 1 m/S 609 mmHg 44%
    04:00 +15°C° 0 mm 1 m/S 608 mmHg 46%
    05:00 +15°C° 0 mm 1 m/S 608 mmHg 46%
    06:00 +15°C° 0 mm 1 m/S 608 mmHg 47%
    07:00 +15°C° 0 mm 1 m/S 608 mmHg 48%
    08:00 +18°C° 0 mm 1 m/S 609 mmHg 42%
    09:00 +21°C° 0 mm 1 m/S 611 mmHg 36%
    10:00 +24°C° 0 mm 1 m/S 612 mmHg 30%
    11:00 +24°C° 0 mm 1 m/S 612 mmHg 28%
    12:00 +25°C° 0 mm 1 m/S 611 mmHg 27%
    13:00 +26°C° 0 mm 1 m/S 611 mmHg 26%
    14:00 +25°C° 0 mm 1 m/S 610 mmHg 28%
    15:00 +24°C° 0 mm 1 m/S 610 mmHg 29%
    16:00 +24°C° 0 mm 1 m/S 609 mmHg 30%
    17:00 +22°C° 0 mm 1 m/S 609 mmHg 37%
    18:00 +18°C° 0 mm 2 m/S 608 mmHg 43%
    19:00 +16°C° 0 mm 2 m/S 608 mmHg 49%
    20:00 +16°C° 0 mm 1 m/S 608 mmHg 50%
    21:00 +15°C° 0 mm 1 m/S 608 mmHg 51%
    22:00 +15°C° 0 mm 1 m/S 608 mmHg 51%
    23:00 +15°C° 0 mm 1 m/S 608 mmHg 51%

    4 Juni, Donnerstag

    Zeit Temperatur Niederschläge Wind Luftdruck Luftfeuchtigkeit
    00:00 +14°C° 0 mm 1 m/S 608 mmHg 50%
    01:00 +14°C° 0 mm 1 m/S 608 mmHg 50%
    02:00 +14°C° 0 mm 1 m/S 608 mmHg 49%
    03:00 +14°C° 0 mm 1 m/S 608 mmHg 48%
    04:00 +14°C° 0 mm 1 m/S 608 mmHg 48%
    05:00 +14°C° 0 mm 1 m/S 608 mmHg 48%
    06:00 +14°C° 0 mm 1 m/S 608 mmHg 48%
    07:00 +14°C° 0 mm 1 m/S 608 mmHg 48%
    08:00 +18°C° 0 mm 1 m/S 610 mmHg 42%
    09:00 +21°C° 0 mm 1 m/S 611 mmHg 35%
    10:00 +24°C° 0 mm 1 m/S 612 mmHg 28%
    11:00 +25°C° 0 mm 1 m/S 612 mmHg 26%
    12:00 +26°C° 0 mm 1 m/S 612 mmHg 25%
    13:00 +27°C° 0 mm 1 m/S 612 mmHg 23%
    14:00 +26°C° 0 mm 1 m/S 611 mmHg 24%
    15:00 +26°C° 0 mm 1 m/S 611 mmHg 24%
    16:00 +26°C° 0 mm 1 m/S 610 mmHg 25%
    17:00 +23°C° 0 mm 1 m/S 610 mmHg 33%
    18:00 +20°C° 0 mm 1 m/S 609 mmHg 40%
    19:00 +16°C° 0 mm 1 m/S 608 mmHg 48%
    20:00 +15°C° 0 mm 1 m/S 608 mmHg 49%
    21:00 +15°C° 0 mm 1 m/S 609 mmHg 50%
    22:00 +15°C° 0 mm 1 m/S 609 mmHg 51%
    23:00 +15°C° 0 mm 1 m/S 609 mmHg 49%

    5 Juni, Freitag

    Zeit Temperatur Niederschläge Wind Luftdruck Luftfeuchtigkeit
    00:00 +14°C° 0 mm 1 m/S 609 mmHg 48%
    01:00 +14°C° 0 mm 1 m/S 609 mmHg 47%
    02:00 +14°C° 0 mm 1 m/S 609 mmHg 45%
    03:00 +14°C° 0 mm 1 m/S 609 mmHg 44%
    04:00 +14°C° 0 mm 1 m/S 609 mmHg 42%
    05:00 +14°C° 0 mm 1 m/S 609 mmHg 43%
    06:00 +14°C° 0 mm 1 m/S 609 mmHg 44%
    07:00 +14°C° 0 mm 1 m/S 609 mmHg 45%
    08:00 +17°C° 0 mm 2 m/S 610 mmHg 39%
    09:00 +20°C° 0 mm 2 m/S 612 mmHg 33%
    10:00 +24°C° 0 mm 3 m/S 613 mmHg 27%
    11:00 +25°C° 0 mm 2 m/S 612 mmHg 25%
    12:00 +26°C° 0 mm 2 m/S 612 mmHg 22%
    13:00 +27°C° 0 mm 2 m/S 612 mmHg 19%
    14:00 +27°C° 0 mm 2 m/S 612 mmHg 19%
    15:00 +27°C° 0 mm 2 m/S 612 mmHg 19%
    16:00 +27°C° 0 mm 1 m/S 611 mmHg 19%
    17:00 +24°C° 0 mm 1 m/S 610 mmHg 25%
    18:00 +21°C° 0 mm 1 m/S 610 mmHg 31%
    19:00 +17°C° 0 mm 2 m/S 609 mmHg 37%
    20:00 +16°C° 0 mm 2 m/S 609 mmHg 37%
    21:00 +16°C° 0 mm 2 m/S 609 mmHg 37%
    22:00 +16°C° 0 mm 2 m/S 610 mmHg 37%
    23:00 +15°C° 0 mm 2 m/S 609 mmHg 37%

    6 Juni, Samstag

    Zeit Temperatur Niederschläge Wind Luftdruck Luftfeuchtigkeit
    00:00 +15°C° 0 mm 2 m/S 609 mmHg 38%
    01:00 +15°C° 0 mm 2 m/S 609 mmHg 38%
    02:00 +15°C° 0 mm 2 m/S 609 mmHg 38%
    03:00 +14°C° 0 mm 2 m/S 609 mmHg 39%
    04:00 +14°C° 0 mm 2 m/S 609 mmHg 39%
    05:00 +14°C° 0 mm 2 m/S 609 mmHg 39%
    06:00 +14°C° 0 mm 2 m/S 609 mmHg 39%
    07:00 +13°C° 0 mm 3 m/S 609 mmHg 39%
    08:00 +17°C° 0 mm 3 m/S 610 mmHg 35%
    09:00 +19°C° 0 mm 4 m/S 611 mmHg 30%
    10:00 +22°C° 0 mm 4 m/S 613 mmHg 26%
    11:00 +23°C° 0 mm 4 m/S 612 mmHg 24%
    12:00 +25°C° 0 mm 4 m/S 612 mmHg 22%
    13:00 +26°C° 0 mm 3 m/S 612 mmHg 21%
    14:00 +26°C° 0 mm 3 m/S 612 mmHg 21%
    15:00 +26°C° 0 mm 2 m/S 611 mmHg 21%
    16:00 +26°C° 0 mm 2 m/S 611 mmHg 21%
    17:00 +23°C° 0 mm 2 m/S 610 mmHg 24%
    18:00 +20°C° 0 mm 2 m/S 610 mmHg 27%
    19:00 +17°C° 0 mm 2 m/S 609 mmHg 30%
    20:00 +16°C° 0 mm 2 m/S 609 mmHg 31%
    21:00 +16°C° 0 mm 2 m/S 609 mmHg 31%
    22:00 +15°C° 0 mm 2 m/S 609 mmHg 32%
    23:00 +15°C° 0 mm 2 m/S 609 mmHg 32%
    Mehr zeigen